Chillicothe, MO

10:09 PM CDT on May 23, 2017 (GMT -0500)
Chillicothe

Weather History for KCDJ - November, 2012

Change the Weather History Date:

Tuesday, November 13, 2012

  Actual Average (KIRK) Record (KIRK)
Temperature  
Mean Temperature 38 °F -  
Max Temperature 54 °F 51 °F 76 °F (1958)
Min Temperature 21 °F 32 °F 1 °F (1986)
Degree Days  
Heating Degree Days 28    
Moisture  
Dew Point 27 °F    
Average Humidity 66    
Maximum Humidity 89    
Minimum Humidity 37    
Precipitation  
Precipitation 0.00 in - - ()
Sea Level Pressure  
Sea Level Pressure 30.46 in    
Wind  
Wind Speed 2 mph (SSE)    
Max Wind Speed 9 mph    
Max Gust Speed -    
Averages and records for this station are not official NWS values.
T = Trace of Precipitation, MM = Missing Value Source: NWS Daily Summary

Daily Weather History Graph

Daily Weather History Graph

Search for Another Location

Airport or City:

Trip Planner

Search our weather history database for the weather conditions in past years. The results will help you decide how hot, cold, wet, or windy it might be!

Date:

Astronomy

Nov. 13, 2012 Rise Set
Actual Time 6:57 AM CST 4:59 PM CST
Civil Twilight 6:28 AM CST 5:28 PM CST
Nautical Twilight 5:55 AM CST 6:00 PM CST
Astronomical Twilight 5:24 AM CST 6:32 PM CST
Moon 6:36 AM CST (11/13) 4:53 PM CST (11/13)
Length of Visible Light 10h 59m
Length of Day
10h 02m
Waning Crescent, 0% of the Moon is Illuminated
Nov 13
Waning Crescent
Nov 13
New
Nov 20
First Quarter
Nov 28
Full
Dec 6
Last Quarter

Hourly Weather History & Observations

Time (CST) Temp. Windchill Dew Point Humidity Pressure Visibility Wind Dir Wind Speed Gust Speed Precip Events Conditions
12:52 AM 25.0 °F - 21.0 °F 85% 30.48 in - Calm Calm - N/A   Unknown
1:52 AM 24.1 °F - 19.9 °F 84% 30.50 in - Calm Calm - N/A   Unknown
2:52 AM 23.0 °F - 19.0 °F 85% 30.50 in - Calm Calm - N/A   Unknown
3:52 AM 23.0 °F - 19.0 °F 85% 30.50 in - Calm Calm - N/A   Unknown
4:52 AM 23.0 °F - 19.0 °F 85% 30.51 in - Calm Calm - N/A   Unknown
5:52 AM 21.9 °F - 19.0 °F 89% 30.51 in - Calm Calm - N/A   Unknown
6:52 AM 23.0 °F - 18.0 °F 81% 30.52 in - Calm Calm - N/A   Unknown
7:52 AM 28.0 °F - 24.1 °F 85% 30.51 in - Calm Calm - N/A   Unknown
8:52 AM 34.0 °F 29.8 °F 25.0 °F 70% 30.51 in - SE 4.6 mph - N/A   Unknown
9:52 AM 39.9 °F 35.1 °F 26.1 °F 58% 30.51 in - SSE 6.9 mph - N/A   Unknown
10:52 AM 45.0 °F 40.1 °F 25.0 °F 46% 30.50 in - SE 9.2 mph - N/A   Unknown
11:52 AM 48.9 °F - 28.9 °F 46% 30.46 in - SE 6.9 mph - N/A   Unknown
12:52 PM 52.0 °F - 28.9 °F 41% 30.43 in - South 8.1 mph - N/A   Unknown
1:52 PM 54.0 °F - 28.9 °F 38% 30.41 in - SE 8.1 mph - N/A   Unknown
2:52 PM 53.1 °F - 27.0 °F 37% 30.40 in - South 9.2 mph - N/A   Unknown
3:52 PM 51.1 °F - 30.9 °F 46% 30.40 in - South 5.8 mph - N/A   Unknown
4:52 PM 48.9 °F - 32.0 °F 52% 30.39 in - SSE 3.5 mph - N/A   Unknown
5:52 PM 46.0 °F - 33.1 °F 61% 30.40 in - Calm Calm - N/A   Unknown
6:52 PM 42.1 °F 40.2 °F 32.0 °F 67% 30.42 in - SSE 3.5 mph - N/A   Unknown
7:52 PM 41.0 °F 39.0 °F 33.1 °F 73% 30.42 in - SSE 3.5 mph - N/A   Unknown
8:52 PM 41.0 °F - 32.0 °F 70% 30.43 in - Calm Calm - N/A   Unknown
9:52 PM 43.0 °F 41.3 °F 30.9 °F 62% 30.43 in - SE 3.5 mph - N/A   Unknown
10:52 PM 42.1 °F 40.2 °F 32.0 °F 67% 30.43 in - SSE 3.5 mph - N/A   Unknown
11:52 PM 41.0 °F - 32.0 °F 70% 30.42 in - Calm Calm - N/A   Unknown